TimeCST,TemperatureF,Dew PointF,Humidity,Sea Level PressureIn,VisibilityMPH,Wind Direction,Wind SpeedMPH,Gust SpeedMPH,PrecipitationIn,Events,Conditions,WindDirDegrees,DateUTC
12:16 AM,21.2,17.6,86,30.36,10.0,North,12.7,-,N/A,,Overcast,360,2013-03-06 06:16:00
12:37 AM,21.2,17.6,86,30.36,10.0,North,10.4,-,N/A,,Overcast,10,2013-03-06 06:37:00
12:56 AM,21.2,17.6,86,30.37,10.0,North,6.9,-,N/A,,Overcast,10,2013-03-06 06:56:00
1:17 AM,21.2,17.6,86,30.38,10.0,North,5.8,-,N/A,,Overcast,10,2013-03-06 07:17:00
1:37 AM,21.2,17.6,86,30.39,7.0,North,6.9,-,N/A,,Overcast,350,2013-03-06 07:37:00
1:56 AM,21.2,15.8,80,30.38,10.0,NNW,5.8,-,N/A,,Overcast,340,2013-03-06 07:56:00
2:17 AM,21.2,15.8,80,30.39,10.0,North,6.9,-,N/A,,Overcast,10,2013-03-06 08:17:00
2:37 AM,21.2,15.8,80,30.39,10.0,NW,9.2,-,N/A,,Overcast,320,2013-03-06 08:37:00
2:56 AM,21.2,15.8,80,30.38,10.0,NNW,8.1,-,N/A,,Overcast,330,2013-03-06 08:56:00
3:17 AM,21.2,15.8,80,30.38,10.0,NW,5.8,-,N/A,,Overcast,320,2013-03-06 09:17:00
3:37 AM,19.4,15.8,86,30.38,10.0,North,5.8,-,N/A,,Overcast,350,2013-03-06 09:37:00
3:56 AM,19.4,15.8,86,30.38,10.0,NNW,6.9,-,N/A,,Overcast,340,2013-03-06 09:56:00
4:17 AM,19.4,15.8,86,30.38,10.0,North,5.8,-,N/A,,Overcast,350,2013-03-06 10:17:00
4:36 AM,19.4,15.8,86,30.38,10.0,NNW,5.8,-,N/A,,Overcast,330,2013-03-06 10:36:00
4:57 AM,19.4,15.8,86,30.38,10.0,North,6.9,-,N/A,,Overcast,360,2013-03-06 10:57:00
5:17 AM,19.4,14.0,80,30.38,10.0,NNW,6.9,-,N/A,,Overcast,340,2013-03-06 11:17:00
5:36 AM,19.4,14.0,80,30.39,10.0,NNE,3.5,-,N/A,,Overcast,20,2013-03-06 11:36:00
5:57 AM,19.4,15.8,86,30.39,10.0,NNW,5.8,-,N/A,,Overcast,340,2013-03-06 11:57:00
6:17 AM,19.4,14.0,80,30.38,10.0,NNW,5.8,-,N/A,,Overcast,340,2013-03-06 12:17:00
6:36 AM,19.4,14.0,80,30.39,10.0,North,6.9,-,N/A,,Overcast,360,2013-03-06 12:36:00
6:57 AM,19.4,14.0,80,30.39,10.0,NNE,5.8,-,N/A,,Overcast,30,2013-03-06 12:57:00
7:17 AM,17.6,14.0,86,30.40,10.0,Calm,Calm,-,N/A,,Overcast,0,2013-03-06 13:17:00
7:36 AM,17.6,14.0,86,30.40,10.0,NW,4.6,-,N/A,,Overcast,310,2013-03-06 13:36:00
7:57 AM,17.6,14.0,86,30.41,10.0,Calm,Calm,-,N/A,,Overcast,0,2013-03-06 13:57:00
8:17 AM,17.6,14.0,86,30.41,5.0,North,3.5,-,N/A,Snow,Light Snow,360,2013-03-06 14:17:00
8:36 AM,17.6,14.0,86,30.41,5.0,North,3.5,-,N/A,Snow,Light Snow,350,2013-03-06 14:36:00
8:57 AM,17.6,14.0,86,30.41,5.0,North,4.6,-,N/A,Snow,Light Snow,10,2013-03-06 14:57:00
9:17 AM,19.4,14.0,80,30.41,10.0,East,4.6,-,N/A,Snow,Light Snow,90,2013-03-06 15:17:00
9:36 AM,19.4,14.0,80,30.41,4.0,Calm,Calm,-,N/A,Snow,Light Snow,0,2013-03-06 15:36:00
9:57 AM,19.4,14.0,80,30.41,4.0,Calm,Calm,-,N/A,Snow,Light Snow,0,2013-03-06 15:57:00
10:16 AM,19.4,14.0,80,30.40,10.0,East,3.5,-,N/A,,Overcast,90,2013-03-06 16:16:00
10:37 AM,19.4,15.8,86,30.40,5.0,Calm,Calm,-,N/A,Snow,Light Snow,0,2013-03-06 16:37:00
10:57 AM,19.4,15.8,86,30.39,7.0,Calm,Calm,-,N/A,Snow,Light Snow,0,2013-03-06 16:57:00
11:16 AM,21.2,15.8,80,30.40,7.0,Calm,Calm,-,N/A,Snow,Light Snow,0,2013-03-06 17:16:00
11:37 AM,21.2,15.8,80,30.39,10.0,ENE,3.5,-,N/A,,Overcast,70,2013-03-06 17:37:00
11:57 AM,21.2,17.6,86,30.39,10.0,ENE,3.5,-,N/A,,Overcast,60,2013-03-06 17:57:00
12:16 PM,21.2,17.6,86,30.38,10.0,Calm,Calm,-,N/A,,Overcast,0,2013-03-06 18:16:00
12:37 PM,21.2,17.6,86,30.38,10.0,SSE,5.8,-,N/A,,Overcast,150,2013-03-06 18:37:00
12:57 PM,23.0,17.6,80,30.37,10.0,SSW,3.5,-,N/A,,Overcast,210,2013-03-06 18:57:00
1:16 PM,23.0,17.6,80,30.36,10.0,Calm,Calm,-,N/A,,Overcast,0,2013-03-06 19:16:00
1:37 PM,23.0,19.4,86,30.36,10.0,South,3.5,-,N/A,,Overcast,170,2013-03-06 19:37:00
1:57 PM,23.0,19.4,86,30.35,10.0,South,3.5,-,N/A,,Overcast,180,2013-03-06 19:57:00
2:17 PM,23.0,19.4,86,30.34,10.0,South,4.6,-,N/A,,Overcast,180,2013-03-06 20:17:00
2:37 PM,23.0,19.4,86,30.33,10.0,SE,6.9,-,N/A,,Overcast,140,2013-03-06 20:37:00
2:56 PM,23.0,19.4,86,30.33,10.0,SSW,5.8,-,N/A,,Overcast,200,2013-03-06 20:56:00
3:17 PM,24.8,19.4,80,30.32,10.0,South,5.8,-,N/A,,Overcast,180,2013-03-06 21:17:00
3:37 PM,24.8,19.4,80,30.32,10.0,SE,6.9,-,N/A,,Overcast,130,2013-03-06 21:37:00
3:56 PM,26.6,19.4,74,30.31,10.0,ESE,5.8,-,N/A,,Overcast,110,2013-03-06 21:56:00
4:17 PM,26.6,19.4,74,30.31,10.0,SSE,6.9,-,N/A,,Overcast,150,2013-03-06 22:17:00
4:36 PM,26.6,19.4,74,30.30,10.0,SSE,9.2,-,N/A,,Overcast,150,2013-03-06 22:36:00
4:57 PM,26.6,21.2,80,30.29,10.0,SE,9.2,-,N/A,,Overcast,140,2013-03-06 22:57:00
5:17 PM,26.6,19.4,74,30.29,10.0,ESE,8.1,-,N/A,,Overcast,120,2013-03-06 23:17:00
5:36 PM,26.6,21.2,80,30.28,10.0,ESE,8.1,-,N/A,,Overcast,110,2013-03-06 23:36:00
5:57 PM,26.6,21.2,80,30.27,10.0,ESE,10.4,-,N/A,,Overcast,120,2013-03-06 23:57:00
6:16 PM,26.6,19.4,74,30.27,10.0,ESE,11.5,-,N/A,,Mostly Cloudy,120,2013-03-07 00:16:00
6:37 PM,26.6,21.2,80,30.26,10.0,ESE,9.2,-,N/A,,Overcast,120,2013-03-07 00:37:00
6:57 PM,26.6,21.2,80,30.26,10.0,SE,10.4,-,N/A,,Overcast,140,2013-03-07 00:57:00
7:16 PM,26.6,21.2,80,30.27,10.0,ESE,9.2,-,N/A,,Overcast,120,2013-03-07 01:16:00
7:37 PM,24.8,19.4,80,30.26,10.0,ESE,8.1,-,N/A,,Overcast,120,2013-03-07 01:37:00
7:57 PM,24.8,19.4,80,30.26,10.0,SE,11.5,-,N/A,,Overcast,130,2013-03-07 01:57:00
8:16 PM,23.0,19.4,86,30.26,10.0,ESE,11.5,-,N/A,,Overcast,120,2013-03-07 02:16:00
8:37 PM,23.0,19.4,86,30.26,10.0,ESE,10.4,-,N/A,,Overcast,120,2013-03-07 02:37:00
8:57 PM,23.0,19.4,86,30.26,10.0,SE,10.4,-,N/A,,Overcast,130,2013-03-07 02:57:00
9:16 PM,23.0,19.4,86,30.26,10.0,ESE,9.2,-,N/A,,Overcast,120,2013-03-07 03:16:00
9:37 PM,23.0,19.4,86,30.26,10.0,ESE,6.9,-,N/A,,Mostly Cloudy,120,2013-03-07 03:37:00
9:57 PM,21.2,19.4,93,30.26,10.0,ESE,6.9,-,N/A,,Mostly Cloudy,120,2013-03-07 03:57:00
10:16 PM,23.0,19.4,86,30.28,10.0,SE,6.9,-,N/A,,Mostly Cloudy,130,2013-03-07 04:16:00
10:37 PM,21.2,19.4,93,30.28,10.0,ESE,5.8,-,N/A,,Scattered Clouds,110,2013-03-07 04:37:00
10:56 PM,21.2,19.4,93,30.27,10.0,ESE,6.9,-,N/A,,Scattered Clouds,120,2013-03-07 04:56:00
11:17 PM,21.2,19.4,93,30.28,10.0,ESE,8.1,-,N/A,,Mostly Cloudy,120,2013-03-07 05:17:00
11:37 PM,21.2,17.6,86,30.29,10.0,ESE,4.6,-,N/A,,Scattered Clouds,120,2013-03-07 05:37:00
11:56 PM,21.2,17.6,86,30.27,10.0,SE,4.6,-,N/A,,Clear,130,2013-03-07 05:56:00